Weather History for Lincolnton, NC

Change the Weather History Date:

Wednesday, May 8, 2013

  Actual Average (KCLT) Record (KCLT)
Temperature  
Mean Temperature 60 °F 65 °F  
Max Temperature 73 °F 77 °F 96 °F (1940)
Min Temperature 48 °F 53 °F 35 °F (1989)
Degree Days  
Heating Degree Days 4 2  
Month to date heating degree days 23  
Since 1 July heating degree days 3355  
Cooling Degree Days 0 3  
Month to date cooling degree days 17  
Year to date cooling degree days 54  
Growing Degree Days 10 (Base 50)    
Moisture  
Dew Point 51 °F    
Average Humidity 74    
Maximum Humidity 100    
Minimum Humidity 44    
Precipitation  
Precipitation 0.01 in 0.10 in 2.41 in (2012)
Month to date precipitation 0.78  
Year to date precipitation 14.56  
Snow  
Snow 0.00 in 0.00 in 0.00 in ()
Month to date snowfall 0.0  
Since 1 July snowfall 4.3  
Snow Depth -    
Sea Level Pressure  
Sea Level Pressure 29.97 in    
Wind  
Wind Speed 2 mph (WSW)    
Max Wind Speed 12 mph    
Max Gust Speed 17 mph    
Visibility 8 miles    
Events Fog , Rain    
T = Trace of Precipitation, MM = Missing Value Source: NWS Daily Summary

Daily Weather History Graph

Daily Weather History Graph

Search for Another Location

Airport:

Trip Planner

Search our weather history database for the weather conditions in past years. The results will help you decide how hot, cold, wet, or windy it might be!

Date:

Astronomy

May. 08, 2013 Rise Set
Actual Time 6:25 AM EDT 8:16 PM EDT
Civil Twilight 5:57 AM EDT 8:44 PM EDT
Nautical Twilight 5:24 AM EDT 9:18 PM EDT
Astronomical Twilight 4:48 AM EDT 9:54 PM EDT
Moon 5:30 AM EDT (5/8) 7:15 PM EDT (5/8)
Length of Visible Light 14h 46m
Length of Day
13h 51m
Waning Crescent, 2% of the Moon is Illuminated
May 8
Waning Crescent
May 9
New
May 18
First Quarter
May 25
Full
May 31
Last Quarter

Hourly Weather History & Observations

Time (EDT) Temp. Dew Point Humidity Pressure Visibility Wind Dir Wind Speed Gust Speed Precip Events Conditions
12:15 AM 53.6 °F 51.8 °F 94% 29.96 in 10.0 mi Calm Calm - N/A   Overcast
12:35 AM 53.6 °F 51.8 °F 94% 29.96 in 7.0 mi Calm Calm - N/A Rain Light Rain
12:55 AM 53.6 °F 51.8 °F 94% 29.96 in 10.0 mi Calm Calm - N/A   Overcast
1:15 AM 53.6 °F 51.8 °F 94% 29.95 in 10.0 mi Calm Calm - N/A   Overcast
1:35 AM 53.6 °F 51.8 °F 94% 29.95 in 10.0 mi Calm Calm - N/A Rain Rain
1:55 AM 53.6 °F 51.8 °F 94% 29.94 in 10.0 mi Calm Calm - N/A   Overcast
2:15 AM 51.8 °F 51.8 °F 100% 29.93 in 7.0 mi Calm Calm - N/A   Overcast
2:35 AM 51.8 °F 51.8 °F 100% 29.93 in 0.8 mi Calm Calm - N/A   Overcast
2:55 AM 51.8 °F 51.8 °F 100% 29.93 in 3.0 mi Calm Calm - 0.01 in   Mostly Cloudy
3:15 AM 51.8 °F 50.0 °F 94% 29.93 in 7.0 mi Calm Calm - N/A   Mostly Cloudy
3:35 AM 51.8 °F 51.8 °F 100% 29.93 in 7.0 mi Calm Calm - N/A   Overcast
3:55 AM 51.8 °F 51.8 °F 100% 29.93 in 10.0 mi Calm Calm - N/A   Mostly Cloudy
4:15 AM 50.0 °F 50.0 °F 100% 29.93 in 1.2 mi Calm Calm - N/A   Mostly Cloudy
4:35 AM 50.0 °F 50.0 °F 100% 29.93 in 1.2 mi Calm Calm - N/A   Overcast
4:55 AM 50.0 °F 50.0 °F 100% 29.94 in 1.0 mi Calm Calm - N/A   Overcast
5:15 AM 50.0 °F 50.0 °F 100% 29.93 in 1.8 mi Calm Calm - N/A   Overcast
5:35 AM 48.2 °F 48.2 °F 100% 29.93 in 0.2 mi Calm Calm - N/A Fog Fog
5:55 AM 50.0 °F 48.2 °F 94% 29.93 in 0.2 mi Calm Calm - N/A Fog Fog
6:15 AM 50.0 °F 50.0 °F 100% 29.94 in 0.2 mi Calm Calm - N/A Fog Fog
6:35 AM 50.0 °F 50.0 °F 100% 29.95 in 1.2 mi Calm Calm - N/A   Overcast
6:55 AM 50.0 °F 48.2 °F 94% 29.95 in 0.8 mi Calm Calm - N/A   Overcast
7:15 AM 50.0 °F 48.2 °F 94% 29.97 in 0.2 mi Calm Calm - N/A Fog Fog
7:35 AM 50.0 °F 50.0 °F 100% 29.98 in 0.2 mi Calm Calm - N/A Fog Fog
7:55 AM 51.8 °F 50.0 °F 94% 29.97 in 0.2 mi Calm Calm - N/A Fog Fog
8:15 AM 51.8 °F 51.8 °F 100% 29.98 in 1.0 mi Calm Calm - N/A   Overcast
8:35 AM 51.8 °F 51.8 °F 100% 29.99 in 5.0 mi Calm Calm - N/A   Overcast
8:55 AM 53.6 °F 51.8 °F 94% 29.99 in 4.0 mi Calm Calm - N/A   Overcast
9:15 AM 53.6 °F 53.6 °F 100% 29.99 in 7.0 mi Calm Calm - N/A   Overcast
9:35 AM 55.4 °F 55.4 °F 100% 30.00 in 10.0 mi Calm Calm - N/A   Mostly Cloudy
9:55 AM 60.8 °F 53.6 °F 77% 30.00 in 10.0 mi West 3.5 mph - N/A   Scattered Clouds
10:15 AM 62.6 °F 53.6 °F 72% 30.00 in 10.0 mi West 3.5 mph - N/A   Scattered Clouds
10:35 AM 64.4 °F 53.6 °F 68% 30.00 in 10.0 mi West 8.1 mph - N/A   Scattered Clouds
10:55 AM 68.0 °F 53.6 °F 60% 30.00 in 10.0 mi WSW 5.8 mph - N/A   Scattered Clouds
11:15 AM 66.2 °F 53.6 °F 64% 30.00 in 10.0 mi WSW 5.8 mph - N/A   Clear
11:35 AM 69.8 °F 53.6 °F 56% 29.99 in 10.0 mi WSW 3.5 mph - N/A   Scattered Clouds
11:55 AM 69.8 °F 51.8 °F 53% 29.98 in 10.0 mi SSW 8.1 mph - N/A   Mostly Cloudy
12:15 PM 69.8 °F 51.8 °F 53% 29.98 in 10.0 mi SW 8.1 mph - N/A   Mostly Cloudy
12:35 PM 69.8 °F 51.8 °F 53% 29.98 in 10.0 mi WSW 9.2 mph - N/A   Mostly Cloudy
12:55 PM 69.8 °F 51.8 °F 53% 29.98 in 10.0 mi West 10.4 mph 16.1 mph N/A   Overcast
1:15 PM 69.8 °F 51.8 °F 53% 29.98 in 10.0 mi WSW 10.4 mph 16.1 mph N/A   Overcast
1:35 PM 68.0 °F 50.0 °F 52% 29.98 in 10.0 mi West 10.4 mph 16.1 mph N/A   Overcast
1:55 PM 69.8 °F 50.0 °F 49% 29.97 in 10.0 mi West 6.9 mph - N/A   Overcast
2:15 PM 69.8 °F 51.8 °F 53% 29.97 in 10.0 mi WSW 9.2 mph - N/A   Overcast
2:35 PM 69.8 °F 50.0 °F 49% 29.97 in 10.0 mi West 8.1 mph 17.3 mph N/A   Overcast
2:55 PM 71.6 °F 50.0 °F 46% 29.97 in 10.0 mi West 3.5 mph - N/A   Overcast
3:15 PM 71.6 °F 51.8 °F 50% 29.96 in 10.0 mi West 3.5 mph - N/A   Overcast
3:35 PM 71.6 °F 50.0 °F 46% 29.96 in 10.0 mi West 8.1 mph - N/A   Overcast
3:55 PM 71.6 °F 50.0 °F 46% 29.96 in 10.0 mi West 5.8 mph - N/A   Overcast
4:15 PM 71.6 °F 50.0 °F 46% 29.95 in 10.0 mi West 8.1 mph - N/A   Mostly Cloudy
4:35 PM 71.6 °F 50.0 °F 46% 29.95 in 10.0 mi WSW 10.4 mph 16.1 mph N/A   Mostly Cloudy
4:55 PM 71.6 °F 50.0 °F 46% 29.95 in 10.0 mi West 4.6 mph - N/A   Overcast
5:15 PM 73.4 °F 51.8 °F 47% 29.95 in 10.0 mi WSW 10.4 mph - N/A   Mostly Cloudy
5:35 PM 73.4 °F 50.0 °F 44% 29.95 in 10.0 mi WSW 11.5 mph - N/A   Mostly Cloudy
5:55 PM 71.6 °F 50.0 °F 46% 29.95 in 10.0 mi West 5.8 mph - N/A   Overcast
6:15 PM 71.6 °F 50.0 °F 46% 29.95 in 10.0 mi West 6.9 mph - N/A   Overcast
6:35 PM 71.6 °F 50.0 °F 46% 29.95 in 10.0 mi West 4.6 mph - N/A   Mostly Cloudy
6:55 PM 71.6 °F 51.8 °F 50% 29.95 in 10.0 mi West 4.6 mph - N/A   Scattered Clouds
7:15 PM 69.8 °F 51.8 °F 53% 29.96 in 10.0 mi West 3.5 mph - N/A   Scattered Clouds
7:35 PM 69.8 °F 51.8 °F 53% 29.96 in 10.0 mi Calm Calm - N/A   Scattered Clouds
7:55 PM 66.2 °F 53.6 °F 64% 29.97 in 10.0 mi West 3.5 mph - N/A   Mostly Cloudy
8:15 PM 66.2 °F 53.6 °F 64% 29.98 in 10.0 mi Calm Calm - N/A   Mostly Cloudy
8:35 PM 66.2 °F 51.8 °F 60% 29.99 in 10.0 mi West 3.5 mph - N/A   Mostly Cloudy
8:55 PM 66.2 °F 51.8 °F 60% 30.00 in 10.0 mi Calm Calm - N/A   Overcast
9:15 PM 68.0 °F 50.0 °F 52% 30.00 in 10.0 mi Calm Calm - N/A   Overcast
9:35 PM 66.2 °F 50.0 °F 56% 30.01 in 10.0 mi Calm Calm - N/A   Mostly Cloudy
9:55 PM 64.4 °F 51.8 °F 64% 30.02 in 10.0 mi Calm Calm - N/A   Mostly Cloudy
10:15 PM 62.6 °F 51.8 °F 68% 30.02 in 10.0 mi Calm Calm - N/A   Scattered Clouds
10:35 PM 60.8 °F 51.8 °F 72% 30.02 in 10.0 mi Calm Calm - N/A   Scattered Clouds
10:55 PM 59.0 °F 51.8 °F 77% 30.02 in 10.0 mi Calm Calm - N/A   Scattered Clouds
11:15 PM 57.2 °F 53.6 °F 88% 30.02 in 10.0 mi Calm Calm - N/A   Scattered Clouds
11:35 PM 55.4 °F 53.6 °F 94% 30.02 in 10.0 mi Calm Calm - N/A   Scattered Clouds